Change the Weather History Date:

Sunday, May 12, 2013

  Actual Average Record
Temperature  
Mean Temperature 55 °F -  
Max Temperature 62 °F 66 °F 89 °F (1993)
Min Temperature 46 °F 45 °F 31 °F (1990)
Degree Days  
Heating Degree Days 10    
Growing Degree Days 5 (Base 50)    
Moisture  
Dew Point 41 °F    
Average Humidity 60    
Maximum Humidity 88    
Minimum Humidity 29    
Precipitation  
Precipitation 0.00 in - - ()
Sea Level Pressure  
Sea Level Pressure 29.75 in    
Wind  
Wind Speed 8 mph (WNW)    
Max Wind Speed 21 mph    
Max Gust Speed 30 mph    
Visibility 14 miles    
Events      
Averages and records for this station are not official NWS values.
T = Trace of Precipitation, MM = Missing Value Source: NWS Daily Summary

Daily Weather History Graph

Daily Weather History Graph

Search for Another Location

Airport or City:

Trip Planner

Search our weather history database for the weather conditions in past years. The results will help you decide how hot, cold, wet, or windy it might be!

Date:

Astronomy

May. 12, 2013 Rise Set
Actual Time 5:40 AM EDT 8:06 PM EDT
Civil Twilight 5:08 AM EDT 8:37 PM EDT
Nautical Twilight 4:30 AM EDT 9:16 PM EDT
Astronomical Twilight 3:46 AM EDT 9:59 PM EDT
Moon 7:32 AM EDT (5/12) 10:31 PM EDT (5/12)
Length of Visible Light 15h 28m
Length of Day
14h 25m
Waxing Crescent, 6% of the Moon is Illuminated
May 12
Waxing Crescent
May 18
First Quarter
May 25
Full
May 31
Last Quarter
Jun 8
New

Hourly Weather History & Observations

Time (EDT) Temp. Windchill Dew Point Humidity Pressure Visibility Wind Dir Wind Speed Gust Speed Precip Events Conditions
12:50 AM 60.8 °F - 57.2 °F 88% 29.71 in 5.0 mi WSW 6.9 mph - N/A   Mostly Cloudy
2:45 AM 57.2 °F - 53.6 °F 88% 29.68 in 5.0 mi West 6.9 mph - N/A   Mostly Cloudy
3:45 AM 57.2 °F - 53.6 °F 88% 29.86 in 5.0 mi West 6.9 mph - N/A   Overcast
4:45 AM 57.2 °F - 51.8 °F 82% 29.68 in 5.0 mi SW 6.9 mph - N/A   Overcast
5:45 AM 55.4 °F - 50.0 °F 82% 29.71 in 10.0 mi Calm Calm - N/A   Overcast
6:45 AM 55.4 °F - 50.0 °F 82% 29.72 in 15.0 mi Calm Calm - N/A   Mostly Cloudy
7:45 AM 55.4 °F - 50.0 °F 82% 29.72 in 15.0 mi Variable 4.6 mph - N/A   Mostly Cloudy
8:45 AM 55.4 °F - 50.0 °F 82% 29.71 in 20.0 mi Calm Calm - N/A   Mostly Cloudy
9:45 AM 59.0 °F - 50.0 °F 72% 29.71 in 20.0 mi Variable 4.6 mph - N/A   Mostly Cloudy
10:45 AM 59.0 °F - 51.8 °F 77% 29.70 in 20.0 mi Calm Calm - N/A   Mostly Cloudy
11:45 AM 62.6 °F - 50.0 °F 63% 29.68 in 20.0 mi WNW 5.8 mph - N/A   Mostly Cloudy
1:54 PM 62.6 °F - 46.4 °F 55% 29.71 in 20.0 mi WNW 17.3 mph 23.0 mph N/A   Scattered Clouds
2:45 PM 62.6 °F - 35.6 °F 37% 29.70 in 20.0 mi WNW 17.3 mph 28.8 mph N/A   Scattered Clouds
3:45 PM 62.6 °F - 30.2 °F 30% 29.71 in 20.0 mi WNW 17.3 mph 28.8 mph N/A   Partly Cloudy
4:45 PM 60.8 °F - 28.4 °F 29% 29.73 in 20.0 mi WNW 20.7 mph 29.9 mph N/A   Partly Cloudy
5:45 PM 59.0 °F - 28.4 °F 31% 29.75 in 20.0 mi WNW 13.8 mph 25.3 mph N/A   Scattered Clouds
6:45 PM 59.0 °F - 26.6 °F 29% 29.77 in 20.0 mi WNW 17.3 mph 28.8 mph N/A   Scattered Clouds
7:45 PM 55.4 °F - 26.6 °F 33% 29.81 in 20.0 mi WNW 13.8 mph 23.0 mph N/A   Scattered Clouds
8:45 PM 51.8 °F - 28.4 °F 41% 29.84 in 10.0 mi WNW 16.1 mph 23.0 mph N/A   Scattered Clouds
9:45 PM 50.0 °F - 28.4 °F 43% 29.88 in 10.0 mi WNW 17.3 mph 28.8 mph N/A   Scattered Clouds
10:45 PM 48.2 °F - 30.2 °F 50% 29.90 in 10.0 mi West 13.8 mph - N/A   Scattered Clouds
11:45 PM 46.4 °F 41.1 °F 33.8 °F 62% 29.91 in 10.0 mi West 11.5 mph - N/A   Partly Cloudy